Total_Precipitation_Accumulation
2.13 2.08 1.53 1.00 0.90 0.72 0.58 0.56 0.53 0.54 0.58 0.77 0.82 0.74 0.83 0.81 0.77 0.79 0.80 0.87 0.98 1.18 1.40 1.59 1.91 2.31 2.58 2.87 3.16 3.42 3.54 3.53 3.63 3.87 3.92 3.75 3.53 3.33 2.95 2.66 2.62 2.56 2.44 2.42
1.85 1.52 0.84 0.64 0.71 0.70 0.63 0.63 0.57 0.53 0.60 0.81 0.84 0.75 0.74 0.74 0.74 0.76 0.81 0.81 0.87 0.95 1.16 1.34 1.60 1.92 2.23 2.52 2.93 3.20 3.40 3.58 3.51 3.41 3.54 3.60 3.56 3.42 3.21 2.96 2.85 2.69 2.56 2.49
1.39 0.98 0.71 0.68 0.71 0.75 0.61 0.56 0.53 0.59 0.70 0.80 0.86 0.89 0.71 0.65 0.62 0.65 0.72 0.72 0.73 0.85 0.99 1.13 1.35 1.60 1.89 2.20 2.55 2.87 3.12 3.39 3.58 3.56 3.70 3.75 3.68 3.53 3.27 2.99 2.82 2.71 2.65 2.60
1.23 0.76 0.73 0.75 0.63 0.62 0.56 0.35 0.45 0.59 0.89 0.98 0.87 1.10 0.67 0.61 0.62 0.63 0.71 0.74 0.69 0.77 0.89 1.01 1.16 1.37 1.63 1.96 2.22 2.48 2.86 3.16 3.44 3.61 3.58 3.53 3.44 3.21 2.99 2.91 2.99 2.89 2.69 2.58
1.19 0.77 0.75 0.82 0.58 0.50 0.49 0.34 0.46 0.64 0.89 1.00 0.73 0.93 0.75 0.58 0.70 0.73 0.76 0.76 0.72 0.75 0.85 0.93 1.05 1.21 1.43 1.74 2.02 2.22 2.50 2.82 3.06 3.13 3.16 3.24 3.24 3.15 3.03 3.04 3.03 3.00 2.75 2.50
0.92 0.72 0.79 0.75 0.56 0.50 0.52 0.60 0.69 0.79 1.21 1.40 0.77 0.90 0.88 0.82 0.91 0.78 0.71 0.70 0.76 0.81 0.88 0.95 1.04 1.17 1.26 1.44 1.74 2.01 2.13 2.37 2.61 2.72 2.80 2.90 2.85 2.89 2.90 2.89 2.96 3.00 2.84 2.56
1.23 0.90 0.69 0.65 0.77 0.67 0.70 1.17 1.64 1.67 1.62 1.11 0.61 0.80 0.99 0.90 0.92 0.92 0.83 0.80 0.87 0.92 1.03 1.10 1.11 1.22 1.29 1.40 1.49 1.75 1.92 2.03 2.23 2.44 2.57 2.58 2.64 2.66 2.68 2.63 2.69 2.89 2.92 2.64
1.26 1.19 0.70 0.59 0.74 0.78 0.69 0.94 1.32 1.29 0.97 0.67 0.55 0.83 0.98 0.88 0.83 0.83 0.83 0.86 0.89 1.04 1.20 1.25 1.26 1.39 1.46 1.50 1.52 1.63 1.73 1.74 1.85 2.07 2.27 2.34 2.44 2.43 2.37 2.31 2.30 2.39 2.56 2.62
0.89 0.84 0.47 0.37 0.42 0.59 0.76 0.73 0.66 1.17 0.96 0.76 0.69 0.71 0.72 0.66 0.69 0.78 0.83 0.84 0.93 1.09 1.26 1.36 1.41 1.47 1.45 1.42 1.51 1.59 1.69 1.66 1.61 1.69 1.84 1.97 2.09 2.12 2.05 2.01 1.99 2.05 2.15 2.29
0.60 0.73 0.52 0.43 0.49 0.61 0.62 0.61 0.82 1.55 1.50 1.03 0.68 0.64 0.87 0.80 0.83 0.81 0.82 0.85 0.96 1.03 1.16 1.30 1.32 1.31 1.36 1.38 1.43 1.55 1.62 1.68 1.61 1.58 1.64 1.74 1.78 1.79 1.78 1.78 1.78 1.76 1.82 1.88
0.44 0.64 0.60 0.63 0.63 0.64 0.63 0.73 0.92 1.19 1.19 1.22 0.86 0.92 1.05 0.93 0.87 0.83 0.81 0.84 0.90 0.95 1.00 1.07 1.10 1.13 1.20 1.24 1.35 1.49 1.59 1.62 1.54 1.58 1.60 1.56 1.61 1.71 1.68 1.60 1.60 1.64 1.64 1.64
0.42 0.64 0.64 0.52 0.38 0.36 0.53 0.63 0.84 1.40 1.17 0.93 0.90 0.98 0.88 0.78 0.74 0.74 0.76 0.80 0.82 0.89 0.92 0.92 0.92 0.91 0.92 0.98 1.08 1.20 1.31 1.36 1.38 1.44 1.53 1.45 1.42 1.57 1.64 1.56 1.50 1.51 1.52 1.43
0.70 0.97 1.05 0.81 0.68 0.56 0.61 0.60 0.78 1.23 1.44 1.10 1.03 0.96 0.76 0.63 0.57 0.60 0.65 0.70 0.74 0.74 0.74 0.72 0.73 0.77 0.77 0.79 0.88 1.00 1.09 1.17 1.28 1.33 1.40 1.36 1.31 1.37 1.43 1.49 1.48 1.44 1.48 1.44
0.94 1.03 1.09 1.14 1.02 0.90 0.79 0.60 0.75 1.41 1.77 1.02 0.74 0.76 0.65 0.59 0.61 0.62 0.62 0.61 0.62 0.61 0.59 0.56 0.55 0.57 0.60 0.66 0.78 0.87 0.92 0.98 1.14 1.22 1.23 1.23 1.23 1.22 1.21 1.25 1.29 1.29 1.30 1.35
0.82 1.12 0.92 0.78 0.67 0.77 0.78 0.64 0.72 1.05 0.98 0.90 0.66 0.61 0.70 0.69 0.71 0.69 0.64 0.56 0.49 0.48 0.46 0.43 0.44 0.46 0.48 0.51 0.57 0.71 0.84 0.91 1.03 1.16 1.20 1.19 1.17 1.14 1.12 1.11 1.08 1.09 1.14 1.20
0.78 1.13 1.01 0.81 0.51 0.53 0.58 0.49 0.56 0.68 0.63 0.62 0.52 0.60 0.57 0.56 0.59 0.62 0.57 0.49 0.44 0.45 0.44 0.39 0.37 0.37 0.39 0.43 0.47 0.57 0.74 0.84 0.92 1.04 1.11 1.13 1.13 1.11 1.10 1.07 1.05 1.00 1.03 1.12
0.77 1.05 1.30 0.97 0.53 0.61 0.69 0.57 0.56 0.64 0.60 0.58 0.66 0.63 0.45 0.46 0.55 0.66 0.61 0.50 0.45 0.45 0.43 0.41 0.39 0.38 0.37 0.38 0.46 0.56 0.68 0.75 0.80 0.87 0.95 1.00 1.01 1.04 1.06 1.05 1.08 1.12 1.13 1.16
0.61 0.89 1.34 1.11 0.84 1.00 0.73 0.48 0.47 0.55 0.60 0.55 0.57 0.49 0.43 0.48 0.52 0.57 0.60 0.55 0.48 0.41 0.39 0.40 0.41 0.39 0.37 0.38 0.44 0.55 0.68 0.78 0.83 0.90 0.93 0.92 0.96 1.02 1.06 1.13 1.22 1.30 1.35 1.36
0.41 0.87 1.36 1.19 0.91 0.60 0.38 0.30 0.42 0.54 0.62 0.52 0.46 0.38 0.34 0.36 0.43 0.48 0.47 0.48 0.50 0.44 0.42 0.44 0.46 0.46 0.43 0.44 0.46 0.54 0.68 0.78 0.85 0.93 0.98 0.99 1.05 1.15 1.20 1.31 1.38 1.41 1.49 1.47
0.33 0.71 1.36 1.24 1.00 0.56 0.39 0.20 0.23 0.43 0.64 0.39 0.34 0.35 0.32 0.32 0.45 0.49 0.45 0.48 0.50 0.47 0.45 0.48 0.48 0.46 0.49 0.53 0.55 0.63 0.78 0.86 0.94 1.03 1.12 1.13 1.15 1.22 1.26 1.29 1.28 1.26 1.27 1.24
0.46 0.78 1.10 1.00 0.95 0.52 0.35 0.16 0.16 0.51 0.65 0.39 0.38 0.40 0.38 0.43 0.51 0.47 0.42 0.45 0.49 0.52 0.55 0.57 0.57 0.60 0.65 0.71 0.75 0.85 0.97 1.09 1.14 1.15 1.20 1.18 1.13 1.15 1.14 1.10 1.05 0.98 0.95 0.91
0.43 0.62 0.68 0.72 1.00 0.69 0.35 0.24 0.45 0.64 0.42 0.36 0.35 0.36 0.37 0.36 0.34 0.34 0.34 0.39 0.42 0.46 0.52 0.58 0.65 0.69 0.72 0.81 0.89 1.00 1.13 1.19 1.13 1.06 1.04 0.99 0.90 0.86 0.83 0.82 0.84 0.82 0.79 0.81
0.42 0.60 0.66 0.69 0.77 0.64 0.49 0.51 0.53 0.45 0.40 0.35 0.36 0.34 0.33 0.34 0.34 0.34 0.33 0.34 0.37 0.39 0.42 0.47 0.55 0.62 0.64 0.71 0.75 0.83 0.87 0.84 0.82 0.81 0.81 0.79 0.75 0.73 0.72 0.72 0.75 0.80 0.79 0.79
0.41 0.39 0.50 0.60 0.58 0.49 0.45 0.41 0.38 0.35 0.37 0.35 0.33 0.31 0.30 0.34 0.32 0.31 0.31 0.32 0.34 0.36 0.38 0.39 0.42 0.47 0.54 0.58 0.61 0.63 0.62 0.61 0.64 0.70 0.73 0.74 0.75 0.73 0.72 0.73 0.73 0.78 0.83 0.84
0.43 0.40 0.47 0.52 0.43 0.38 0.35 0.32 0.34 0.32 0.28 0.28 0.27 0.26 0.28 0.29 0.29 0.30 0.31 0.33 0.34 0.35 0.37 0.39 0.45 0.50 0.57 0.57 0.60 0.63 0.64 0.64 0.66 0.70 0.75 0.79 0.80 0.78 0.76 0.76 0.77 0.80 0.84 0.92
0.40 0.49 0.61 0.60 0.44 0.45 0.42 0.33 0.30 0.29 0.29 0.31 0.31 0.30 0.30 0.31 0.35 0.34 0.36 0.37 0.38 0.38 0.38 0.39 0.42 0.48 0.56 0.56 0.58 0.63 0.67 0.70 0.72 0.72 0.73 0.76 0.80 0.82 0.80 0.76 0.77 0.81 0.83 0.87